STARLINK-4593, 53633

Orbit data source: Space-Track

STARLINK-4593, 53633 is a payload satellite owned by SpaceX/Seattle (US) in LEO that was launched on Sun, 28 Aug 2022 UTC via an FALCON 9 launch vehicle from the Air Force Eastern Test Range (AFETR). Payload-class satellites include a variety of spacecraft equipped with specific instruments for various scientific and technological missions. These include communications satellites like Starlink; space stations such as the ISS; scientific satellites like the Hubble; Earth observation satellites from companies like Planet Labs, Umbra, and HawkEye 360; GPS; miniature CubeSats for education and research; and military/defense satellites.

Loading next visibility...
Identifier
53633, 2022-104AX
Orbit
LEO
Country
Flag of USUS
Related business
Manufacturer
SpaceX/Seattle
Mission
Operational Commercial Communications
Bus & Motor
STARLINK, Unknown motor
Mass
300 kg wet, ~290 kg dry
Launch date (UTC)
2022-08-28 (3 years ago)
Launch vehicle
FALCON 9
Launch site
Air Force Eastern Test Range (AFETR)
Object type
Payload
Rocket body
Debris
Shape & HBR
Box + 1 Pan, 10.1 m
Radar Cross Section
13.562 m², Large (>1 m²)

Expand to show TLE details & history
Last TLE update: 8 hours ago

TLE from 8 hours ago
0 STARLINK-4593
1 53633U 22104AX  26036.95212482 -.00000024  00000-0  16577-4 0  9996
2 53633  53.2188   6.6199 0001265  92.4147 267.6990 15.08835535191105
Epoch: 2026-02-05T22:51Z
TLE epoch observation values (Epoch: 2026-02-05T22:51:03.584Z)
Latitude
-0.00002°
Longitude
-112.24203°
Altitude
540.69 km
Speed
7.593 km/s
True Right ascension
00h 26m 28s
True Declination
0° 00' 00"
Sunlit
Object was in daylight at epoch
Visualization orbit readout
Latitude
Unknown
Longitude
Unknown
Altitude
Unknown
Speed
Unknown
Apparent Right ascension
Unknown
Apparent Declination
Unknown
Sunlit
N/A
Visualization observer readout
Local Sidereal Time
09:12:50
Azimuth
Unknown
Elevation
Unknown
Doppler factor
Unknown
Orbital elements
Apogee altitude
540.877 km
Perigee altitude
539.127 km
Semi-major axis
6,918.139 km
Eccentricity
0.00013
Inclination
53.2188°
RAAN
6.6199°
Arg. of periapsis
92.4147°
True anomaly
267.68452°
Mean anomaly
267.699°
Eccentric anomaly
267.69176°
Mean motion
3.77189 °/min
Orbital period
95.44 mins
BSTAR
0.000016577
Loading maneuver chart data...
Computing Atmospheric mass density...
Loading historical data...
Loading historical data...
Loading historical data...
Loading historical data...
Loading historical data...
Loading historical data...
Loading historical data...

Documentation

Showing up to 5 results
|